Flag for Indonesia Weather past 2 weeks in Banda Aceh, Aceh, Indonesia

82 °F

Scattered clouds.

Feels Like: 92 °F
Forecast: 79 / 86 °F
Wind: 6 mph from Southeast

Location: Medan / Polonia

Current Time: Nov 29, 2015 at 1:13:32 PM

Latest Report: Nov 29, 2015 at 12:00 PM

Visibility: 3 mi

Pressure: 29.89 "Hg

Humidity: 89%

Dew point: 79 °F

Location of Banda AcehLocation

Historic Weather in Banda Aceh — Graph


Banda Aceh temperature yesterday

Maximum temperature yesterday: 86 °F (at 10:30 AM)
Minimum temperature yesterday: 75 °F (at 4:00 AM)
Average temperature yesterday: 81 °F

Past Weeks' High & Low Weather Summary

High97 °F (Nov 29, 8:00 AM)100% (Nov 15, 3:00 AM)29.92 "Hg (Nov 15, 3:00 AM)
Low72 °F (Nov 15, 6:30 AM)53% (Nov 29, 8:00 AM)29.68 "Hg (Nov 21, 3:00 PM)
Average81 °F87%29.80 "Hg
* Reported Nov 14 12:00 Noon — Nov 29 12:00 Noon, Banda Aceh, Weather by CustomWeather, © 2015

Note: Actual official high and low records may vary slightly from our data, if they occured in-between our weather recording intervals... More about our weather records


Banda Aceh weather history for previous 24 hours

Time TempWeatherWind HumidityBarometerVisibility
12:00 PM
Sun, Nov 29
82 °FScattered clouds.6 mph89%29.89 "Hg3 mi
11:30 AM84 °FScattered clouds.3 mph84%29.89 "Hg4 mi
11:00 AM84 °FPartly sunny.No wind79%29.92 "Hg4 mi
10:30 AM82 °FPartly sunny.3 mph84%29.92 "Hg3 mi
10:00 AM82 °FPartly sunny.3 mph84%29.92 "Hg3 mi
9:30 AM82 °FBroken clouds.3 mph84%29.92 "Hg2 mi
9:00 AM81 °FPartly sunny.3 mph89%29.92 "Hg2 mi
8:30 AM81 °FScattered clouds.3 mph89%29.92 "Hg2 mi
8:00 AM97 °FFog.3 mph53%29.89 "Hg2 mi
7:30 AM79 °FFog.No wind94%29.86 "Hg1 mi
7:00 AM77 °FFog.No wind100%29.86 "Hg1 mi
6:30 AM77 °FFog.No wind100%29.86 "Hg1 mi
6:00 AM75 °FFog.No wind100%29.86 "Hg2 mi
5:30 AM77 °FFog.2 mph100%29.83 "Hg1 mi
5:00 AM77 °FFog.3 mph94%29.83 "Hg2 mi
4:00 AM77 °FFog.2 mph100%29.83 "Hg2 mi
3:30 AM77 °FFog.No wind100%29.83 "Hg2 mi
2:00 AM79 °FFog.2 mph94%29.89 "Hg2 mi
1:30 AM77 °FFog.No wind100%29.89 "Hg2 mi
12:30 AM79 °FFog.2 mph94%29.89 "Hg2 mi
10:30 PM
Sat, Nov 28
79 °FPassing clouds.2 mph94%29.89 "Hg3 mi
10:00 PM79 °FPassing clouds.3 mph94%29.89 "Hg5 mi
9:30 PM79 °FPassing clouds.5 mph89%29.89 "HgN/A
9:00 PM79 °FPassing clouds.3 mph94%29.89 "HgN/A
8:30 PM79 °FPassing clouds.3 mph94%29.86 "HgN/A
8:00 PM81 °FPassing clouds.3 mph94%29.86 "HgN/A
7:30 PM81 °FPassing clouds.5 mph94%29.83 "HgN/A
7:00 PM81 °FPassing clouds.5 mph94%29.83 "Hg5 mi
6:30 PM82 °FPassing clouds.No wind84%29.83 "HgN/A
6:00 PM82 °FScattered clouds.No wind84%29.80 "Hg5 mi
5:30 PM82 °FScattered clouds.5 mph84%29.77 "HgN/A
5:00 PM86 °FScattered clouds.6 mph75%29.77 "HgN/A
4:30 PM86 °FScattered clouds.7 mph79%29.77 "HgN/A
4:00 PM86 °FScattered clouds.7 mph79%29.77 "HgN/A
3:30 PM86 °FScattered clouds.7 mph75%29.77 "HgN/A
3:00 PM86 °FPartly sunny.8 mph79%29.77 "HgN/A
1:00 PM84 °FPartly sunny.9 mph79%29.83 "HgN/A
Weather by CustomWeather, © 2015

See weather overviewHow to use our weather pages